Wind_Speed
5 5 15 14 14 13 14 8 7 8 14 14 15 15 21 29 32 37 41 38 41 47 41 35 34 28 23 24 19 18 18 18 16 14 19 14 14 14 16 19 20 28 28 28
3 5 15 11 12 13 11 7 6 4 6 6 13 20 27 27 29 35 32 30 42 42 41 37 31 27 22 19 16 11 12 11 10 8 9 10 8 7 10 16 18 20 17 15
2 4 2 6 8 8 5 7 3 5 3 6 13 17 21 21 25 23 27 35 35 36 34 31 29 26 23 20 15 13 11 10 7 7 7 6 6 8 8 9 11 14 14 16
2 3 4 3 3 4 8 10 7 5 2 5 11 16 23 24 23 27 28 30 32 31 29 26 22 19 16 11 12 11 11 8 7 5 2 2 4 5 6 9 15 18 19 17
3 3 3 1 2 1 2 5 7 6 4 4 4 8 21 25 24 23 22 22 24 24 25 24 24 22 19 17 15 14 12 9 6 4 3 2 2 4 6 7 9 11 13 16
2 3 2 2 2 1 2 3 7 10 9 8 2 6 5 17 19 21 22 21 21 21 23 24 22 18 17 18 16 16 13 11 8 6 3 3 4 4 4 5 6 10 13 14
2 2 3 4 3 2 1 4 5 8 11 14 6 6 5 11 17 19 21 20 18 19 22 22 18 17 19 18 20 17 13 10 8 6 5 3 2 3 5 6 8 10 11 12
1 2 3 3 2 5 8 11 11 9 9 10 9 8 8 9 12 15 17 19 18 17 19 18 15 13 15 17 17 13 12 11 9 8 7 6 7 7 6 7 8 10 12 14
6 4 3 3 7 13 19 16 11 12 9 8 5 5 8 10 12 13 14 15 15 17 16 16 15 14 14 16 12 11 10 11 10 8 8 8 8 9 10 9 9 10 12 14
2 3 5 9 12 13 18 16 14 14 12 11 11 7 4 3 5 5 7 9 12 11 12 13 15 14 14 13 12 11 11 10 10 8 7 6 6 7 8 10 11 12 14 14
3 2 4 9 12 15 14 14 15 14 13 14 11 10 9 9 6 2 3 5 5 5 6 7 9 11 10 10 11 13 13 11 10 9 8 8 8 8 9 9 10 13 15 16
6 16 8 13 20 18 18 17 15 14 13 12 11 10 9 8 7 5 4 2 0 3 5 6 5 5 6 7 9 11 13 13 12 12 11 11 11 11 12 12 13 15 16 17
4 9 16 7 23 20 18 16 14 12 10 10 9 7 6 7 7 7 7 6 5 3 1 3 6 9 7 8 10 12 14 14 13 13 13 12 12 14 14 12 15 16 17 17
10 18 9 24 22 21 18 16 13 10 9 8 7 7 7 7 7 7 6 6 6 6 7 7 7 7 8 8 8 9 9 10 13 16 15 15 15 15 15 16 17 15 13 16
21 20 13 20 17 22 19 17 14 10 8 7 6 6 6 6 6 5 5 5 5 6 6 7 8 8 9 9 9 10 10 11 11 11 11 12 13 14 15 16 16 16 16 13
23 18 15 21 21 24 21 18 14 12 10 8 8 7 7 7 7 7 7 7 7 8 9 10 11 11 12 12 12 11 9 9 9 9 9 10 10 11 13 14 15 15 16 15
28 20 21 22 23 23 21 16 13 12 10 9 9 8 8 8 8 8 7 8 9 8 9 10 13 14 13 12 11 10 9 9 10 11 13 13 13 13 14 15 15 16 16 17
27 26 24 21 24 22 20 17 14 11 9 8 8 8 7 8 7 8 8 9 10 9 11 12 12 10 9 8 8 9 10 10 11 11 10 10 10 10 11 12 13 14 15 15
24 21 23 21 20 19 18 16 13 11 9 8 7 7 8 8 8 9 11 11 11 11 10 10 9 8 8 9 9 9 10 10 11 11 11 11 10 11 11 13 14 15 16 17
25 19 20 21 20 20 18 15 13 10 8 7 8 8 8 9 10 11 15 10 10 11 12 10 10 10 11 11 11 12 12 13 13 12 12 11 12 12 14 15 17 18 18 18
27 23 23 22 21 19 17 14 12 10 7 7 8 9 10 10 12 15 13 10 7 12 11 10 11 11 12 13 14 14 14 15 15 14 14 14 14 14 16 17 17 18 19 19
29 27 25 23 22 19 17 14 11 8 7 7 8 8 9 9 11 12 11 13 8 12 11 11 12 13 14 14 15 15 16 16 16 16 16 16 17 17 17 18 18 18 19 19
29 27 25 23 21 18 16 13 9 7 6 6 7 8 8 8 9 11 9 8 11 12 15 15 15 15 16 18 18 18 17 17 16 16 16 17 17 17 17 18 18 19 19 19
28 26 24 21 20 18 15 11 8 7 6 6 6 8 9 9 10 10 11 12 13 15 16 16 16 17 17 18 18 18 19 18 16 16 16 16 17 17 18 18 18 18 19 19
27 26 25 23 20 17 14 10 8 7 7 7 7 8 9 10 14 11 13 14 15 16 17 18 19 20 20 20 19 20 21 18 17 16 16 17 16 17 18 18 18 18 19 18
30 28 25 20 16 16 13 11 8 8 8 9 8 9 10 11 13 14 14 15 16 16 17 17 18 18 19 19 18 18 17 16 16 14 16 18 18 18 17 18 18 18 17 15
27 24 23 21 20 17 13 11 10 8 9 11 11 10 11 12 13 14 15 15 16 16 17 16 16 16 17 16 16 15 15 14 14 15 16 17 17 17 17 17 18 17 13 11
Wind_Direction
83 80 64 45 39 28 41 21 44 7 27 15 16 14 20 12 10 24 36 37 54 67 83 89 97 103 102 102 105 123 148 154 154 160 179 210 223 220 228 231 230 218 224 227
20 54 76 57 35 35 31 26 51 359 39 12 24 35 28 9 18 26 23 38 56 64 67 74 80 83 93 99 101 108 112 120 133 153 167 180 198 217 222 227 229 231 242 241
270 221 44 31 6 38 22 24 15 35 2 339 36 39 36 23 24 19 29 48 58 61 64 65 66 71 72 77 84 93 102 101 122 138 169 196 220 236 229 232 230 240 248 251
243 33 47 219 129 57 52 22 17 81 120 87 77 53 38 39 40 42 49 58 66 68 68 74 81 92 99 75 67 62 70 74 78 82 80 148 187 205 223 230 239 242 248 248
97 64 125 222 225 199 46 347 348 16 97 203 103 18 33 28 43 51 59 66 73 78 79 72 67 69 76 76 71 75 77 71 59 47 39 25 272 236 229 237 237 236 230 221
47 97 178 204 198 97 311 3 354 29 13 59 297 44 357 22 40 46 54 64 73 76 77 75 68 71 75 74 73 69 65 61 61 57 42 353 339 314 299 278 261 254 246 243
3 98 284 168 157 130 91 184 105 71 58 70 95 114 49 40 50 51 55 61 66 68 70 72 75 72 73 78 74 69 64 57 46 34 22 6 277 277 264 266 264 255 254 249
116 107 280 156 132 168 137 126 120 100 87 78 81 89 79 73 68 60 60 64 66 68 69 69 67 61 64 62 62 60 57 56 54 45 23 353 331 315 302 283 272 271 261 260
178 210 170 124 137 134 141 139 140 132 134 132 110 38 24 36 50 61 64 63 58 60 66 65 59 54 54 56 50 42 41 36 28 25 25 17 355 336 322 305 289 280 273 265
51 208 178 156 149 139 156 149 146 148 150 161 156 160 143 80 63 59 67 70 65 59 60 60 55 56 58 51 38 23 12 8 4 5 1 348 343 332 326 320 311 302 295 288
267 305 154 208 185 165 158 156 156 153 154 158 164 168 166 166 163 117 59 57 48 35 35 40 40 32 31 24 19 11 360 351 348 339 330 318 316 308 303 297 297 299 297 295
214 196 187 208 187 185 178 172 167 165 161 169 173 178 181 178 179 173 178 185 317 338 345 350 343 326 338 339 343 342 339 337 330 316 312 311 309 298 289 283 282 281 282 283
212 207 202 208 184 187 186 179 176 172 172 170 177 187 191 189 188 193 198 199 207 218 199 320 319 309 304 310 310 315 324 322 319 316 311 304 298 296 295 280 283 279 278 279
196 167 152 167 178 187 190 183 183 181 183 189 186 187 196 199 202 213 219 227 227 230 255 263 267 275 295 302 298 301 308 308 311 311 307 304 301 302 304 302 297 289 281 284
179 186 196 179 181 184 191 191 190 193 198 205 216 223 229 234 231 232 240 251 254 261 269 283 297 303 306 312 314 312 313 315 314 313 311 310 310 311 311 309 307 303 298 294
184 195 181 185 183 188 193 193 198 200 208 223 231 242 252 254 256 265 275 275 279 290 300 306 308 313 315 317 318 316 313 310 309 313 316 317 314 312 312 312 314 313 312 312
181 182 183 186 186 190 198 201 206 214 217 230 247 256 262 264 262 265 284 294 293 295 293 301 307 308 304 307 310 314 316 311 307 307 309 307 305 306 307 307 308 310 310 309
209 208 202 199 190 191 196 202 209 216 229 247 252 260 266 284 280 268 276 279 288 292 294 298 302 300 299 297 297 298 297 298 300 302 302 305 308 311 315 317 320 321 319 314
203 204 203 200 199 198 201 204 210 222 234 246 255 264 275 278 282 282 273 271 282 291 294 295 288 287 290 292 289 289 290 292 294 292 292 295 300 305 310 314 317 318 317 314
199 197 194 194 194 199 198 204 213 219 231 249 262 270 275 279 274 275 284 282 286 291 295 291 287 292 292 288 288 287 288 290 292 287 285 286 290 298 305 312 316 316 315 310
197 191 189 190 190 192 198 205 210 220 235 259 275 280 281 282 275 274 277 283 292 285 287 283 284 283 284 285 283 285 288 286 286 285 283 284 288 294 299 304 308 310 310 308
197 194 192 189 191 192 197 202 210 228 254 272 282 290 296 302 300 284 283 292 292 285 289 287 287 284 284 283 279 281 284 286 286 284 284 285 289 293 296 300 306 307 306 305
197 196 195 194 195 196 197 202 215 239 258 270 280 287 295 296 304 299 301 288 288 287 290 293 293 291 287 285 285 285 284 283 285 285 285 285 287 291 296 301 304 305 304 304
197 194 195 192 192 197 202 206 222 242 253 263 272 278 287 290 287 294 297 293 293 294 293 295 294 291 288 287 290 290 288 284 285 286 287 288 291 294 298 301 303 303 303 303
199 195 195 198 202 202 203 215 226 244 260 265 267 274 283 289 295 300 288 289 289 288 290 292 291 290 290 290 284 283 285 283 282 283 287 292 294 296 300 301 302 302 303 303
197 199 202 205 208 207 212 223 230 245 261 270 273 278 283 288 291 293 295 296 296 296 295 294 293 291 290 288 284 281 281 281 281 283 291 295 297 299 300 300 301 303 303 299
200 200 204 204 206 210 219 229 240 251 264 275 282 281 285 289 294 297 298 298 298 297 297 297 295 293 291 287 283 283 282 282 285 289 290 294 297 298 299 301 302 301 296 293
Height
1466 1464 1464 1466 1463 1463 1461 1462 1460 1463 1457 1457 1454 1446 1438 1430 1416 1404 1404 1397 1392 1393 1401 1407 1410 1415 1418 1421 1429 1432 1437 1442 1446 1451 1457 1459 1464 1466 1469 1473 1477 1479 1482 1485
1469 1465 1467 1473 1468 1465 1465 1462 1465 1463 1463 1464 1462 1455 1445 1437 1432 1423 1420 1412 1411 1411 1413 1414 1420 1424 1428 1431 1433 1439 1442 1445 1450 1455 1458 1461 1464 1467 1469 1472 1475 1477 1479 1481
1478 1466 1467 1480 1476 1470 1468 1467 1467 1470 1468 1465 1461 1459 1460 1453 1445 1443 1436 1428 1429 1426 1426 1429 1429 1433 1437 1436 1441 1445 1445 1449 1454 1457 1459 1462 1464 1468 1469 1471 1474 1476 1477 1479
1483 1473 1492 1479 1477 1474 1474 1471 1469 1470 1467 1467 1466 1465 1462 1463 1457 1451 1447 1443 1441 1439 1439 1438 1441 1441 1441 1445 1448 1450 1451 1455 1457 1458 1461 1464 1466 1468 1469 1471 1474 1474 1476 1477
1480 1490 1484 1480 1478 1476 1476 1479 1472 1471 1473 1467 1467 1468 1466 1463 1460 1459 1456 1455 1452 1451 1451 1449 1448 1447 1451 1453 1455 1455 1456 1457 1460 1461 1463 1466 1468 1469 1469 1471 1472 1474 1475 1477
1477 1484 1479 1479 1477 1478 1478 1483 1476 1473 1472 1472 1469 1473 1474 1471 1467 1463 1462 1460 1460 1459 1456 1455 1455 1458 1460 1460 1461 1460 1462 1464 1464 1466 1467 1467 1470 1469 1467 1470 1471 1474 1475 1476
1479 1488 1482 1476 1477 1478 1482 1490 1479 1475 1472 1473 1477 1480 1478 1475 1472 1470 1467 1465 1464 1463 1463 1462 1465 1466 1466 1466 1465 1467 1468 1468 1467 1470 1471 1471 1471 1471 1469 1470 1470 1473 1474 1475
1482 1482 1488 1474 1476 1479 1478 1479 1480 1478 1476 1474 1476 1478 1479 1479 1478 1475 1473 1471 1470 1470 1469 1471 1473 1475 1471 1468 1469 1471 1470 1470 1470 1470 1471 1471 1471 1471 1471 1471 1471 1472 1473 1474
1478 1476 1472 1472 1473 1475 1477 1479 1482 1482 1481 1479 1477 1475 1475 1475 1476 1477 1477 1476 1474 1473 1476 1475 1476 1476 1474 1474 1475 1474 1472 1471 1471 1470 1470 1470 1472 1472 1471 1472 1472 1472 1474 1474
1474 1468 1469 1471 1473 1475 1477 1479 1481 1483 1484 1484 1484 1483 1482 1481 1480 1480 1480 1480 1479 1479 1479 1479 1476 1475 1476 1474 1473 1473 1473 1471 1470 1468 1468 1469 1470 1471 1470 1470 1470 1471 1472 1472
1471 1467 1468 1469 1470 1473 1475 1477 1480 1482 1484 1486 1486 1486 1486 1485 1483 1481 1480 1480 1480 1481 1481 1479 1474 1473 1475 1477 1475 1470 1470 1469 1468 1469 1469 1469 1469 1469 1468 1469 1470 1468 1468 1468
1464 1456 1458 1458 1464 1469 1472 1475 1478 1479 1482 1483 1484 1485 1485 1485 1484 1483 1482 1481 1480 1479 1477 1475 1474 1476 1475 1474 1472 1471 1470 1466 1467 1468 1466 1466 1466 1467 1467 1465 1466 1466 1465 1466
1451 1451 1457 1457 1462 1466 1470 1472 1475 1478 1480 1480 1480 1481 1482 1481 1481 1481 1481 1481 1481 1481 1479 1478 1478 1478 1477 1473 1471 1470 1468 1467 1466 1465 1463 1463 1462 1463 1462 1462 1462 1462 1462 1461
1449 1451 1457 1457 1460 1464 1467 1470 1472 1474 1475 1477 1478 1479 1480 1480 1479 1479 1480 1480 1480 1479 1478 1477 1477 1476 1473 1471 1470 1471 1469 1465 1463 1462 1460 1459 1458 1457 1456 1456 1456 1458 1457 1455
1447 1449 1452 1455 1459 1463 1466 1468 1470 1471 1471 1472 1473 1473 1474 1474 1474 1476 1477 1478 1477 1476 1475 1475 1474 1472 1470 1470 1469 1467 1465 1465 1463 1460 1459 1458 1457 1455 1453 1452 1450 1450 1450 1450
1444 1447 1450 1452 1456 1460 1463 1466 1468 1469 1469 1469 1470 1470 1469 1469 1470 1470 1471 1470 1470 1470 1469 1468 1466 1466 1466 1465 1464 1462 1460 1458 1458 1457 1456 1455 1454 1453 1451 1450 1448 1446 1445 1443
1438 1444 1445 1448 1451 1455 1458 1461 1463 1465 1466 1466 1466 1466 1466 1466 1467 1466 1466 1467 1466 1465 1465 1465 1464 1462 1461 1460 1460 1459 1459 1458 1456 1455 1454 1452 1451 1449 1448 1446 1445 1443 1442 1441
1430 1435 1439 1442 1445 1449 1453 1456 1459 1461 1462 1462 1463 1463 1463 1464 1463 1463 1464 1464 1463 1463 1462 1461 1460 1459 1458 1457 1456 1456 1455 1454 1453 1451 1450 1449 1448 1447 1445 1444 1442 1439 1438 1436
1426 1430 1434 1438 1442 1445 1449 1452 1455 1457 1458 1459 1460 1460 1460 1460 1460 1460 1459 1459 1459 1458 1457 1456 1454 1454 1454 1454 1454 1453 1452 1452 1451 1450 1449 1448 1446 1445 1443 1441 1439 1437 1435 1433
1424 1428 1431 1435 1438 1442 1445 1448 1452 1454 1455 1456 1456 1456 1456 1456 1455 1455 1455 1455 1455 1454 1452 1452 1452 1452 1452 1451 1450 1449 1449 1448 1447 1446 1445 1444 1443 1442 1440 1438 1436 1433 1431 1429
1421 1425 1427 1431 1435 1438 1441 1444 1446 1448 1449 1450 1450 1450 1451 1451 1450 1449 1449 1449 1451 1449 1449 1448 1447 1447 1447 1446 1446 1445 1445 1444 1443 1443 1441 1440 1440 1438 1437 1435 1432 1430 1427 1425
1417 1421 1424 1427 1431 1435 1438 1441 1443 1445 1446 1446 1446 1446 1446 1445 1445 1443 1443 1444 1445 1444 1444 1444 1443 1444 1443 1443 1442 1441 1441 1441 1439 1438 1437 1436 1435 1433 1432 1430 1427 1425 1423 1421
1413 1418 1422 1425 1428 1432 1434 1437 1439 1440 1441 1442 1443 1443 1442 1443 1443 1441 1441 1441 1441 1441 1440 1440 1439 1438 1438 1437 1436 1436 1435 1434 1434 1433 1432 1431 1430 1428 1427 1425 1423 1420 1418 1416
1412 1416 1420 1424 1427 1429 1432 1434 1436 1437 1438 1438 1439 1439 1439 1439 1439 1439 1439 1438 1437 1437 1436 1436 1435 1434 1432 1432 1431 1430 1429 1428 1428 1427 1427 1425 1424 1423 1421 1420 1418 1416 1413 1411
1411 1414 1417 1420 1423 1426 1429 1431 1432 1433 1434 1435 1435 1435 1435 1435 1434 1434 1433 1433 1432 1431 1431 1431 1431 1430 1429 1427 1426 1425 1424 1422 1421 1421 1421 1420 1419 1417 1416 1415 1413 1410 1408 1405
1406 1411 1414 1417 1420 1423 1425 1427 1428 1429 1430 1431 1432 1432 1431 1431 1430 1429 1428 1427 1426 1426 1425 1424 1424 1423 1422 1421 1419 1418 1417 1418 1416 1415 1415 1415 1413 1412 1411 1409 1408 1405 1403 1400
1406 1408 1412 1414 1416 1419 1422 1423 1424 1425 1426 1426 1427 1427 1427 1426 1425 1424 1423 1422 1421 1419 1419 1418 1418 1417 1415 1414 1414 1412 1411 1412 1412 1410 1410 1409 1408 1406 1405 1403 1402 1400 1398 1396